Carson City, NV

9:15 AM PST on February 13, 2016 (GMT -0800)
Carson

Weather History for KCXP - April, 2014

Change the Weather History Date:

Saturday, April 26, 2014

  Actual Average Record
Temperature  
Mean Temperature 42 °F -  
Max Temperature 50 °F 63 °F 77 °F (2013)
Min Temperature 35 °F 34 °F 35 °F (2014)
Degree Days  
Heating Degree Days 22    
Moisture  
Dew Point 25 °F    
Average Humidity 57    
Maximum Humidity 87    
Minimum Humidity 27    
Precipitation  
Precipitation 0.00 in - - ()
Sea Level Pressure  
Sea Level Pressure 29.83 in    
Wind  
Wind Speed 6 mph (WSW)    
Max Wind Speed 17 mph    
Max Gust Speed 28 mph    
Visibility 10 miles    
Events      
Averages and records for this station are not official NWS values.
T = Trace of Precipitation, MM = Missing Value Source: NWS Daily Summary

Daily Weather History Graph

Daily Weather History Graph

Search for Another Location

Airport or City:

Trip Planner

Search our weather history database for the weather conditions in past years. The results will help you decide how hot, cold, wet, or windy it might be!

Date:

Astronomy

Apr. 26, 2014 Rise Set
Actual Time 6:06 AM PDT 7:47 PM PDT
Civil Twilight 5:38 AM PDT 8:15 PM PDT
Nautical Twilight 5:03 AM PDT 8:50 PM PDT
Astronomical Twilight 4:27 AM PDT 9:27 PM PDT
Moon 4:32 AM PDT (4/26) 5:22 PM PDT (4/26)
Length of Visible Light 14h 37m
Length of Day
13h 40m
Waning Crescent, 7% of the Moon is Illuminated
Apr 26
Waning Crescent
Apr 28
New
May 6
First Quarter
May 14
Full
May 21
Last Quarter

Hourly Weather History & Observations

Time (PDT) Temp. Windchill Dew Point Humidity Pressure Visibility Wind Dir Wind Speed Gust Speed Precip Events Conditions
12:15 AM 35.6 °F 32.8 °F 32.0 °F 87% 29.73 in 10.0 mi SW 3.5 mph - N/A   Overcast
12:35 AM 35.6 °F 32.8 °F 32.0 °F 87% 29.72 in 10.0 mi WSW 3.5 mph - N/A   Overcast
12:55 AM 35.6 °F 30.7 °F 32.0 °F 87% 29.72 in 10.0 mi West 5.8 mph - N/A   Mostly Cloudy
1:15 AM 35.6 °F 31.7 °F 32.0 °F 87% 29.72 in 10.0 mi WSW 4.6 mph - N/A   Mostly Cloudy
1:35 AM 35.6 °F 29.9 °F 32.0 °F 87% 29.73 in 10.0 mi NNW 6.9 mph - N/A   Overcast
1:55 AM 35.6 °F 31.7 °F 32.0 °F 87% 29.73 in 10.0 mi NNW 4.6 mph - N/A   Overcast
2:15 AM 35.6 °F 30.7 °F 32.0 °F 87% 29.72 in 10.0 mi NW 5.8 mph - N/A   Overcast
2:35 AM 35.6 °F - 32.0 °F 87% 29.73 in 10.0 mi Calm Calm - N/A   Overcast
2:55 AM 35.6 °F - 32.0 °F 87% 29.73 in 10.0 mi Calm Calm - N/A   Overcast
3:15 AM 35.6 °F - 32.0 °F 87% 29.73 in 10.0 mi Calm Calm - N/A   Overcast
3:35 AM 35.6 °F 31.7 °F 32.0 °F 87% 29.73 in 10.0 mi WSW 4.6 mph - N/A   Overcast
3:55 AM 35.6 °F 30.7 °F 32.0 °F 87% 29.73 in 10.0 mi WSW 5.8 mph - N/A   Overcast
4:15 AM 35.6 °F 31.7 °F 32.0 °F 87% 29.73 in 10.0 mi SW 4.6 mph - N/A   Overcast
4:35 AM 35.6 °F 31.7 °F 32.0 °F 87% 29.73 in 10.0 mi SW 4.6 mph - N/A   Overcast
4:55 AM 37.4 °F 34.9 °F 32.0 °F 81% 29.74 in 10.0 mi WSW 3.5 mph - N/A   Overcast
5:15 AM 35.6 °F 31.7 °F 32.0 °F 87% 29.75 in 10.0 mi South 4.6 mph - N/A   Overcast
5:35 AM 35.6 °F 30.7 °F 32.0 °F 87% 29.75 in 10.0 mi South 5.8 mph - N/A   Mostly Cloudy
5:55 AM 35.6 °F 32.8 °F 32.0 °F 87% 29.76 in 10.0 mi SW 3.5 mph - N/A   Overcast
6:15 AM 35.6 °F 31.7 °F 32.0 °F 87% 29.77 in 10.0 mi SSW 4.6 mph - N/A   Overcast
6:35 AM 35.6 °F 32.8 °F 32.0 °F 87% 29.77 in 10.0 mi SSW 3.5 mph - N/A   Overcast
6:55 AM 35.6 °F 32.8 °F 32.0 °F 87% 29.78 in 10.0 mi SW 3.5 mph - N/A   Overcast
7:15 AM 35.6 °F 31.7 °F 32.0 °F 87% 29.79 in 10.0 mi SSW 4.6 mph - N/A   Overcast
7:35 AM 35.6 °F 31.7 °F 32.0 °F 87% 29.79 in 10.0 mi SSW 4.6 mph - N/A   Overcast
7:55 AM 37.4 °F 33.8 °F 32.0 °F 81% 29.80 in 10.0 mi South 4.6 mph - N/A   Overcast
8:15 AM 37.4 °F 34.9 °F 32.0 °F 81% 29.81 in 10.0 mi SSW 3.5 mph - N/A   Overcast
8:35 AM 39.2 °F - 32.0 °F 75% 29.82 in 10.0 mi Calm Calm - N/A   Overcast
9:15 AM 39.2 °F 35.9 °F 30.2 °F 70% 29.82 in 10.0 mi WNW 4.6 mph - N/A   Mostly Cloudy
9:35 AM 41.0 °F 38.0 °F 28.4 °F 61% 29.82 in 10.0 mi SW 4.6 mph - N/A   Mostly Cloudy
9:55 AM 41.0 °F - 28.4 °F 61% 29.82 in 10.0 mi Calm Calm - N/A   Mostly Cloudy
10:15 AM 41.0 °F - 28.4 °F 61% 29.82 in 10.0 mi Calm Calm - N/A   Partly Cloudy
10:35 AM 44.6 °F 42.2 °F 26.6 °F 49% 29.82 in 10.0 mi NE 4.6 mph - N/A   Clear
10:55 AM 44.6 °F 40.2 °F 26.6 °F 49% 29.82 in 10.0 mi SW 8.1 mph - N/A   Scattered Clouds
11:15 AM 46.4 °F 41.1 °F 23.0 °F 40% 29.83 in 10.0 mi West 11.5 mph 16.1 mph N/A   Scattered Clouds
11:35 AM 46.4 °F 41.9 °F 19.4 °F 34% 29.82 in 10.0 mi WNW 9.2 mph 17.3 mph N/A   Partly Cloudy
11:55 AM 46.4 °F 42.4 °F 19.4 °F 34% 29.82 in 10.0 mi WNW 8.1 mph 19.6 mph N/A   Clear
12:15 PM 46.4 °F 42.9 °F 19.4 °F 34% 29.83 in 10.0 mi West 6.9 mph 18.4 mph N/A   Scattered Clouds
12:35 PM 48.2 °F - 15.8 °F 27% 29.82 in 10.0 mi WNW 8.1 mph 19.6 mph N/A   Partly Cloudy
12:55 PM 50.0 °F - 19.4 °F 30% 29.82 in 10.0 mi WSW 11.5 mph 23.0 mph N/A   Partly Cloudy
1:15 PM 48.2 °F - 17.6 °F 30% 29.83 in 10.0 mi West 15.0 mph 26.5 mph N/A   Partly Cloudy
1:35 PM 48.2 °F - 17.6 °F 30% 29.84 in 10.0 mi WSW 15.0 mph 25.3 mph N/A   Clear
2:15 PM 48.2 °F - 19.4 °F 32% 29.85 in 10.0 mi West 16.1 mph 20.7 mph N/A   Partly Cloudy
2:35 PM 48.2 °F - 19.4 °F 32% 29.86 in 10.0 mi WSW 17.3 mph 25.3 mph N/A   Scattered Clouds
2:55 PM 48.2 °F - 19.4 °F 32% 29.86 in 10.0 mi WSW 12.7 mph 24.2 mph N/A   Mostly Cloudy
3:15 PM 48.2 °F - 19.4 °F 32% 29.86 in 10.0 mi SSW 10.4 mph 27.6 mph N/A   Scattered Clouds
3:35 PM 48.2 °F - 19.4 °F 32% 29.86 in 10.0 mi SW 17.3 mph 27.6 mph N/A   Mostly Cloudy
3:55 PM 48.2 °F - 21.2 °F 34% 29.86 in 10.0 mi SW 12.7 mph 24.2 mph N/A   Partly Cloudy
4:15 PM 48.2 °F - 19.4 °F 32% 29.87 in 10.0 mi West 12.7 mph 21.9 mph N/A   Clear
4:35 PM 48.2 °F - 17.6 °F 30% 29.87 in 10.0 mi West 10.4 mph 21.9 mph N/A   Clear
4:55 PM 46.4 °F 39.8 °F 19.4 °F 34% 29.88 in 10.0 mi SW 16.1 mph 25.3 mph N/A   Mostly Cloudy
5:15 PM 48.2 °F - 19.4 °F 32% 29.88 in 10.0 mi SW 5.8 mph 25.3 mph N/A   Overcast
5:35 PM 46.4 °F 42.9 °F 21.2 °F 37% 29.88 in 10.0 mi WSW 6.9 mph 20.7 mph N/A   Mostly Cloudy
5:55 PM 46.4 °F 41.5 °F 23.0 °F 40% 29.89 in 10.0 mi SW 10.4 mph 21.9 mph N/A   Mostly Cloudy
6:15 PM 46.4 °F 41.5 °F 23.0 °F 40% 29.88 in 10.0 mi SW 10.4 mph 16.1 mph N/A   Mostly Cloudy
6:35 PM 44.6 °F 38.4 °F 21.2 °F 39% 29.88 in 10.0 mi SSW 12.7 mph 19.6 mph N/A   Scattered Clouds
6:55 PM 44.6 °F 38.8 °F 21.2 °F 39% 29.88 in 10.0 mi SW 11.5 mph 21.9 mph N/A   Mostly Cloudy
7:15 PM 44.6 °F 39.7 °F 21.2 °F 39% 29.88 in 10.0 mi SW 9.2 mph 21.9 mph N/A   Overcast
7:35 PM 42.8 °F 35.8 °F 21.2 °F 42% 29.89 in 10.0 mi SW 13.8 mph 23.0 mph N/A   Overcast
7:55 PM 42.8 °F 37.0 °F 21.2 °F 42% 29.89 in 10.0 mi WSW 10.4 mph 19.6 mph N/A   Overcast
8:15 PM 42.8 °F 38.6 °F 17.6 °F 36% 29.90 in 10.0 mi SW 6.9 mph - N/A   Overcast
8:35 PM 42.8 °F 38.6 °F 15.8 °F 34% 29.91 in 10.0 mi SW 6.9 mph - N/A   Overcast
8:55 PM 41.0 °F 33.1 °F 17.6 °F 39% 29.93 in 10.0 mi West 15.0 mph 20.7 mph N/A   Overcast
9:15 PM 41.0 °F 33.9 °F 17.6 °F 39% 29.94 in 10.0 mi West 12.7 mph 20.7 mph N/A   Overcast
9:35 PM 41.0 °F 33.9 °F 19.4 °F 42% 29.95 in 10.0 mi West 12.7 mph 26.5 mph N/A   Overcast
10:15 PM 41.0 °F 37.1 °F 21.2 °F 45% 29.95 in 10.0 mi West 5.8 mph - N/A   Mostly Cloudy
10:35 PM 42.8 °F 41.1 °F 21.2 °F 42% 29.95 in 10.0 mi SSW 3.5 mph - N/A   Scattered Clouds
10:55 PM 41.0 °F 38.0 °F 23.0 °F 49% 29.95 in 10.0 mi West 4.6 mph - N/A   Partly Cloudy
11:15 PM 41.0 °F 39.0 °F 23.0 °F 49% 29.95 in 10.0 mi South 3.5 mph - N/A   Partly Cloudy
11:35 PM 41.0 °F 37.1 °F 23.0 °F 49% 29.96 in 10.0 mi SW 5.8 mph - N/A   Partly Cloudy
11:55 PM 41.0 °F - 23.0 °F 49% 29.96 in 10.0 mi Calm Calm - N/A   Clear